Location: Northern Prairie Star Party
(53.2167°N, 112.5333°W)
Time: 17:18:10
(UTC-07:00)

Daily predictions for brighter satellites

Satellite Brightness Start Highest point End
(mag) Time Altitude Azimuth Time Altitude Azimuth Time Altitude Azimuth
Cosmos 1602 4.0 16:50:10 10° N 16:54:01 50° ENE 16:57:51 10° SSE
Cosmos 990 Rocket 4.2 16:49:28 10° S 16:54:28 54° ESE 16:59:29 10° NNE
Cosmos 2184 Rocket 4.2 16:49:06 10° NNW 16:55:25 82° W 17:01:45 10° S
Cosmos 2150 Rocket 4.1 16:51:56 10° SSW 16:57:20 82° ESE 17:02:50 10° NNE
ATLAS CENTAUR R/B 2.0 16:54:43 10° SW 16:59:28 65° NW 17:03:56 10° NE
Cosmos 1484 Rocket 4.3 16:57:45 10° E 16:59:56 15° ENE 17:02:07 10° NNE
CZ-2C R/B 2.9 16:55:32 10° SE 17:00:11 40° ENE 17:04:59 10° N
Cosmos 1818 3.7 16:54:45 10° SW 17:00:14 86° SE 17:05:45 10° NE
SPOT 3 Rocket 3.9 16:56:28 10° SE 17:01:22 45° ENE 17:06:17 10° N
Cosmos 2082 Rocket 3.4 17:01:22 10° NNW 17:05:40 22° NNE 17:09:58 10° E
Iridium 2 3.6 17:02:15 10° N 17:06:04 84° E 17:09:53 10° S
EO 1 Del DPAF 3.3 17:02:17 10° NNE 17:06:12 72° ESE 17:10:04 10° S
Cosmos 2297 Rocket 3.8 17:02:16 10° W 17:07:01 27° NW 17:11:48 10° NNE
Cosmos 1674 Rocket 3.7 17:03:40 10° S 17:08:04 60° E 17:12:28 10° NNE
Cosmos 2298 Rocket 4.2 17:02:57 10° SSW 17:08:18 77° WNW 17:13:40 10° NNE
PAYLOAD A 3.9 17:04:00 10° SSE 17:08:45 63° ENE 17:13:43 10° N
Cosmos 2154 Rocket 4.0 17:04:10 10° N 17:10:24 75° ENE 17:16:39 10° SSE
Cosmos 2227 Rocket 3.9 17:06:30 10° W 17:10:52 22° NNW 17:15:16 10° NNE
Cosmos 1536 3.0 17:07:50 10° N 17:11:49 49° ENE 17:15:46 10° SSE
Okean 1 Rocket 3.0 17:08:05 10° N 17:12:28 76° E 17:16:48 10° SSE
CZ-2C R/B 3.8 17:08:58 10° NNE 17:13:20 52° E 17:17:41 10° S
IRS-1A Rocket 4.3 17:08:00 10° SSE 17:13:31 89° E 17:19:05 10° NNW
Cosmos 1833 Rocket 3.9 17:09:34 10° NNW 17:13:52 21° NNE 17:18:09 10° E
IDEFIX/ARIANE 42P 2.7 17:10:30 10° SE 17:15:31 52° ENE 17:20:34 10° N
Cosmos 1461 4.3 17:13:25 10° NW 17:17:10 41° SW 17:20:53 10° SSE
COSMO-SKYMED 1 4.4 17:16:32 11° ENE 17:17:45 12° E 17:19:31 10° ESE
Cosmos 1544 Rocket 4.3 17:15:31 10° N 17:19:29 30° ENE 17:23:27 10° SE
Meteor 1-11 Rocket 3.9 17:21:16 10° NNW 17:26:53 77° W 17:32:23 10° S
Cosmos 1606 2.8 17:22:59 10° SSW 17:26:55 83° WNW 17:30:52 10° N
Cosmos 1975 Rocket 3.7 17:25:04 10° SSE 17:28:58 34° E 17:32:52 10° NNE
Meteor 2-6 Rocket 4.4 17:23:57 10° SSW 17:29:48 86° WNW 17:35:49 10° NNE
MOZ.5/SAFIR/RUBIN 5/SL-8 4.4 17:25:39 10° N 17:30:13 58° WNW 17:34:48 10° SSW
USA 161 4.3 17:29:40 10° NW 17:30:49 12° WNW 17:31:58 10° W
Ariane Rocket 4.4 17:27:50 10° S 17:32:39 42° W 17:37:28 10° NNW
Okean 3 3.7 17:28:50 10° S 17:32:59 50° E 17:37:08 10° NNE
SJ-12 3.8 17:29:11 10° SSE 17:33:15 72° ENE 17:37:24 10° N
SMAP 3.0 17:28:45 10° SSE 17:33:22 69° ENE 17:38:02 10° N
AQUARIUS 4.1 17:28:59 10° SSE 17:33:28 69° ENE 17:37:58 10° N
Thor Agena Rocket 4.0 17:29:11 10° NNE 17:34:05 42° E 17:39:01 10° S
Cosmos 1898 Rocket 4.3 17:29:31 10° SW 17:34:33 51° WNW 17:39:39 10° NNE
USA 234 3.6 17:29:59 13° ENE 17:35:49 56° SE 17:42:13 10° SW
MSX 3.9 17:31:13 10° SE 17:36:50 57° ENE 17:42:28 10° N
NOSS 3-4 (A) 4.3 17:31:04 10° NW 17:37:20 40° NNE 17:42:43 15° E
NOSS 3-4 (C) 4.3 17:31:10 10° NW 17:37:25 40° NNE 17:42:47 15° E
CZ-4 R/B 1.5 17:35:07 10° SSE 17:39:19 85° WSW 17:43:30 10° NNW
Cosmos 2263 Rocket 2.2 17:33:46 10° SSW 17:39:24 88° ESE 17:45:06 10° NNE
Cosmos 1125 Rocket 3.7 17:36:38 10° S 17:41:48 55° ESE 17:46:46 11° NNE
Cosmos 494 Rocket 4.2 17:37:26 10° NNW 17:42:32 50° ENE 17:47:38 10° SE
Cosmos 1937 Rocket 4.1 17:37:49 10° SW 17:43:00 57° WNW 17:48:12 10° NNE
Cosmos 1633 3.4 17:41:16 10° NNW 17:44:47 52° W 17:48:17 10° S
Cosmos 1812 4.0 17:44:24 10° SE 17:47:16 20° E 17:47:21 20° E
Abrixas 3.9 17:45:54 10° SW 17:48:32 28° S 17:50:12 17° ESE
Cosmos 2251 Rocket 3.5 17:44:18 10° NNW 17:49:40 63° ENE 17:54:58 10° SE
SL-8 Rocket 3.9 17:44:43 10° N 17:50:56 72° ENE 17:57:04 10° SSE
Meteor 1-12 Rocket 4.4 17:45:38 10° N 17:51:12 49° ENE 17:56:50 10° SE
Cosmos 1975 3.6 17:48:20 10° N 17:52:01 31° ENE 17:55:40 10° SE
ERBS 2.6 17:49:05 10° W 17:52:28 57° NNW 17:54:10 26° NE
YAOGAN 1 2.6 17:48:14 10° SSE 17:52:34 87° WSW 17:56:57 10° NNW
ATLAS 2AS CENTAUR R/B 3.1 17:45:20 10° NW 17:53:34 88° SW 18:01:23 10° SE
SJ-6B 4.3 17:55:09 18° NE 17:55:09 18° NE 17:56:48 10° N
Meteor 1-27 Rocket 4.0 17:52:27 10° SSW 17:58:17 75° WNW 18:04:03 10° N
Resurs 01 Rocket 3.3 18:00:13 17° NE 18:00:13 17° NE 18:02:02 10° NNE
SL-27 R/B 2.4 17:56:18 10° NNW 18:00:00 81° ENE 18:03:41 10° SSE
Cosmos 2366 rocket 4.0 17:54:03 10° N 18:00:25 65° ENE 18:06:43 10° SSE
Cosmos 2344 4.3 17:52:30 10° WSW 18:00:26 59° NNW 18:08:33 16° NE
ALOS 4.0 18:02:21 16° NNE 18:02:21 16° NNE 18:03:59 10° NNE
Cosmos 2218 Rocket 3.9 17:54:34 10° N 18:00:57 73° ENE 18:07:11 10° SSE
Cosmos 1378 Rocket 3.7 18:00:29 10° SSW 18:04:47 74° WNW 18:09:08 10° N
Cosmos 1844 Rocket 3.1 18:01:10 10° S 18:06:20 40° ESE 18:09:11 24° ENE
SKYMED 2 4.3 18:05:09 27° ENE 18:06:23 31° E 18:10:15 10° SSE
Timation 2 Rocket 4.4 18:00:32 10° NNW 18:07:03 50° NE 18:13:13 12° ESE
Cosmos 1959 Rocket 4.4 18:01:16 10° N 18:07:27 79° ENE 18:13:40 10° SSE
Cosmos 2181 Rocket 4.0 18:01:12 10° S 18:07:33 82° E 18:14:01 10° NNE
BREEZE-M DEB (TANK) 3.6 18:07:13 10° SSW 18:08:45 17° SSE 18:08:45 17° SSE
Cosmos 1455 Rocket 3.0 18:05:11 10° N 18:09:34 66° ENE 18:13:57 10° SSE
ISS -1.0 18:09:52 10° S 18:11:30 14° SE 18:11:30 14° SE
Meteor 2-19 Rocket 4.4 18:06:18 10° NNW 18:12:26 89° E 18:18:29 10° S
Cosmos 1844 4.3 18:08:38 10° S 18:13:36 35° ESE 18:15:25 28° ENE
GEOS 3 Rocket 4.0 18:09:49 10° SSE 18:14:53 62° SW 18:20:00 10° NW
CZ-3B DEB 3.4 18:26:24 10° S 18:30:52 37° ESE 18:34:11 28° E
CZ-3A R/B 3.9 18:26:13 10° SW 18:31:54 77° SSE 18:49:44 23° ENE
Cosmos 2278 Rocket 2.9 18:27:06 10° SSE 18:31:58 31° ESE 18:31:58 31° ESE
Cosmos 1809 Rocket 4.4 18:26:26 10° N 18:32:36 65° ENE 18:38:42 10° SSE
ASTRO F (AKARI) 4.1 18:32:26 75° NNE 18:32:39 87° ESE 18:35:48 10° SSW
Cosmos 1484 Rocket 2.9 18:30:12 10° S 18:33:58 71° WSW 18:37:43 10° NNW
Cosmos 1821 Rocket 4.2 18:30:18 10° N 18:36:08 42° ENE 18:39:23 24° SE
CZ-2C R/B 4.0 18:33:53 10° SSW 18:38:29 37° W 18:43:15 10° NNW
COSMOS 2487 3.4 18:35:39 10° NNW 18:38:00 35° N 18:38:00 35° N
ATLAS CENTAUR R/B 3.2 18:35:30 10° WNW 18:39:16 24° NNW 18:40:46 20° N
Genesis I 3.0 18:35:48 10° NW 18:39:47 81° NE 18:40:19 64° ESE
Cosmos 1238 Rocket 3.6 18:42:24 10° S 18:43:57 28° S 18:43:57 28° S
Cosmos 2082 Rocket 2.1 18:45:12 10° NNW 18:50:51 66° NE 18:52:45 42° ESE
Cosmos 2297 Rocket 4.3 18:50:21 10° NW 18:53:10 14° N 18:55:15 12° NNE
COSMO-SKYMED 1 2.4 18:53:45 56° NNE 18:54:38 84° ESE 18:58:59 10° SSW
Okean 1 3.8 18:50:40 10° S 18:53:41 48° SSE 18:53:41 48° SSE
FENGYUN 3A 4.0 18:56:08 44° NE 18:56:08 44° NE 19:00:32 10° N
Cosmos 2227 Rocket 4.3 18:54:40 10° NNW 18:57:12 13° N 18:58:44 12° NNE
Cosmos 1833 Rocket 2.6 18:53:15 10° NNW 18:58:54 66° NE 18:59:57 54° ESE
Cosmos 1500 3.3 18:55:16 10° NNW 18:59:04 72° W 18:59:53 52° SSW
Spot 2 Rocket 3.4 19:01:56 62° ENE 19:01:56 62° ENE 19:06:53 10° N
Nadezhda 3 Rocket 3.9 18:56:59 10° S 19:03:03 61° E 19:06:12 30° NNE
Meteor 2-21 4.5 18:58:08 10° NNW 19:04:23 82° W 19:10:32 10° S
Meteor 1-18 Rocket 4.4 19:06:58 10° SSW 19:12:37 74° WNW 19:17:18 16° N
USA 234 3.2 19:17:19 52° NE 19:19:04 78° NNW 19:25:37 10° WSW
METEOR-M 4.4 19:17:15 10° S 19:22:34 68° WSW 19:27:56 10° NNW
Cosmos 1812 3.8 19:19:10 10° SSW 19:22:35 43° W 19:22:35 43° W
Cosmos 1536 Rocket 4.1 19:18:44 10° SSW 19:23:08 58° WNW 19:23:39 54° NW
Cosmos 2263 Rocket 3.9 19:19:20 10° W 19:24:04 27° NW 19:26:50 19° N
NOSS 3-4 (A) 3.6 19:22:18 10° NW 19:29:11 79° NE 19:30:11 67° ESE
NOSS 3-4 (C) 3.6 19:22:24 10° NW 19:29:17 78° NE 19:30:15 67° E
BREEZE M DEB (TANK) 4.0 19:29:58 10° W 19:33:43 49° S 19:34:57 44° SSE
Resurs 01 Rocket 3.6 19:37:47 22° NNW 19:37:47 22° NNW 19:39:23 10° NNW
ALOS 4.2 19:40:53 21° NNW 19:40:53 21° NNW 19:42:27 10° NNW
NOSS 3-3 (A) 4.4 19:34:57 10° SSW 19:39:53 52° S 19:39:53 52° S
NOSS 3-3 (C) 4.4 19:35:04 10° SSW 19:39:57 51° S 19:39:57 51° S
BREEZE-M DEB (TANK) 3.8 19:28:01 10° W 19:47:08 89° S 19:47:44 76° E
Cosmos 1844 Rocket 3.4 19:44:46 10° WSW 19:50:12 48° NW 19:50:53 46° NNW
Cosmos 1844 4.3 19:52:07 10° SW 19:57:20 53° WNW 19:57:20 53° WNW
Cosmos 1934 Rocket 4.2 19:55:46 10° NNW 20:01:37 67° W 20:01:37 67° W
Cosmos 2278 Rocket 3.3 20:10:12 10° SW 20:13:52 39° WSW 20:13:52 39° WSW
ATLAS CENTAUR R/B 4.4 20:16:33 10° NW 20:17:04 12° NW 20:17:04 12° NW
Cosmos 2082 Rocket 3.9 20:29:50 10° NW 20:34:33 28° WSW 20:34:39 28° WSW
Cosmos 1833 Rocket 4.5 20:37:44 10° NW 20:41:42 27° W 20:41:42 27° W
USA 234 4.5 21:04:40 36° WNW 21:04:40 36° WNW 21:08:22 10° WNW
CZ-3B DEB 3.7 20:58:36 10° WSW 21:03:15 60° W 21:03:15 60° W
